Terminal Aerodrome Forecast
Issued by NWS Billings, MT

Home | Current Version | Previous Version | Graphics & Text | Print | Product List | Glossary On
Versions: 1 2 3 4 5 6 7 8 9 10 11 12 13 14 15 16 17 18 19 20 21 22 23 24 25 26 27 28 29 30 31 32 33 34 35 36 37
773
FTUS45 KBYZ 250539
TAFMLS
TAF
KMLS 250539Z 2506/2606 04016G22KT P6SM OVC015
     FM251800 04011KT P6SM BKN025
     FM252000 04009KT P6SM SCT040
     FM260000 09006KT P6SM FEW040=

USA.gov is the U.S. government's official web portal to all federal, state and local government web resources and services.